COSMOS 1989 (ETALON 1)

Last updated on Oct. 30, 2020, 5:58 a.m. UTC

1 19751U 89001C   20303.28527198  .00000092  00000-0  00000-0 0  9992
2 19751  64.1984 142.8755 0022850 211.0298 327.1317  2.13156422247529
UTC
Height (km)
Latitude
Longitude
Inclination
Orbital Period
UTC large
Height (km)
Speed (km/s)
/
Latitude / Longitude
Inclination (degrees)
Orbital Period (minutes)
Azimuth
Elevation
Range (km)
Doppler Factor
iOS Compass Heading
iOS Angle

Next 30 passes for location: Hong Kong

Rise time Rise Azimuth (degrees) Set time Set Azimuth (degrees) Duration Max altitude (degrees)

No matching passes for this satellites